Flag for U.S.A. Weather past 2 weeks in Chesapeake, Virginia, U.S.A.

Now
46 °F

Sunny.


Feels Like: 44 °F
Forecast: 26 / 53 °F
Wind: 6 mph from Southeast

Location: Chesapeake Municipal Airport

Current Time: Feb 1, 2015 at 12:20:51 PM

Latest Report: Feb 1, 2015 at 11:55 AM


Visibility: 10 mi

Pressure: 30.28 "Hg

Humidity: 43%

Dew point: 25 °F

Location of ChesapeakeLocation

Historic Weather in Chesapeake — Graph

°F

Chesapeake temperature yesterday

Maximum temperature yesterday: 43 °F (at 2:35 PM)
Minimum temperature yesterday: 25 °F (at 6:55 AM)
Average temperature yesterday: 32 °F

Past Weeks' High & Low Weather Summary

 TemperatureHumidityPressure
High66 °F (Jan 20, 3:15 PM)100% (Jan 17, 9:55 PM)30.42 "Hg (Jan 17, 9:55 PM)
Low21 °F (Jan 29, 5:15 AM)22% (Jan 31, 2:35 PM)29.44 "Hg (Jan 24, 12:55 PM)
Average41 °F73%30.03 "Hg
* Reported Jan 17 11:15 AM — Feb 1 11:15 AM, Chesapeake, Weather by CustomWeather, © 2014

Note: Actual official high and low records may vary slightly from our data, if they occured in-between our weather recording intervals... More about our weather records

Advertising

Chesapeake weather history for previous 24 hours

 ConditionsComfort  
Time TempWeatherWind HumidityBarometerVisibility
11:15 AM
Feb 1
45 °FScattered clouds.7 mph49%30.30 "Hg10 mi
10:55 AM43 °FSunny.6 mph53%30.30 "Hg10 mi
10:15 AM41 °FSunny.3 mph53%30.30 "Hg10 mi
9:55 AM39 °FSunny.No wind56%30.31 "Hg10 mi
9:15 AM36 °FSunny.No wind70%30.31 "Hg10 mi
8:55 AM34 °FSunny.No wind75%30.32 "Hg10 mi
8:35 AM32 °FScattered clouds.No wind80%30.31 "Hg10 mi
8:15 AM30 °FPartly sunny.No wind80%30.31 "Hg10 mi
7:55 AM30 °FPartly sunny.No wind80%30.31 "Hg10 mi
7:15 AM25 °FSunny.No wind93%30.31 "Hg10 mi
6:55 AM27 °FClear.No wind80%30.31 "Hg10 mi
6:15 AM28 °FClear.No wind74%30.31 "Hg10 mi
5:55 AM30 °FClear.No wind80%30.30 "Hg10 mi
5:35 AM30 °FClear.No wind69%30.29 "Hg10 mi
5:15 AM28 °FPassing clouds.No wind86%30.28 "Hg10 mi
4:55 AM30 °FPassing clouds.No wind80%30.28 "Hg10 mi
4:35 AM32 °FClear.No wind75%30.28 "Hg10 mi
4:15 AM30 °FClear.No wind75%30.27 "Hg10 mi
3:55 AM28 °FClear.No wind86%30.27 "Hg10 mi
3:35 AM28 °FClear.No wind86%30.27 "Hg10 mi
3:15 AM27 °FClear.No wind93%30.27 "Hg10 mi
2:55 AM27 °FClear.No wind80%30.27 "Hg10 mi
2:35 AM27 °FClear.No wind80%30.27 "Hg10 mi
2:15 AM27 °FClear.No wind86%30.27 "Hg10 mi
1:55 AM27 °FClear.No wind80%30.28 "Hg10 mi
1:35 AM25 °FClear.No wind86%30.27 "Hg10 mi
1:15 AM27 °FClear.No wind74%30.27 "Hg10 mi
12:55 AM27 °FClear.No wind80%30.28 "Hg10 mi
12:15 AM27 °FClear.No wind74%30.29 "Hg10 mi
11:55 PM
Jan 31
25 °FClear.No wind86%30.29 "Hg10 mi
11:35 PM27 °FClear.No wind74%30.29 "Hg10 mi
11:15 PM27 °FClear.No wind74%30.30 "Hg10 mi
10:55 PM27 °FClear.No wind74%30.30 "Hg10 mi
10:15 PM25 °FClear.No wind80%30.30 "Hg10 mi
9:55 PM27 °FClear.No wind74%30.31 "Hg10 mi
9:15 PM27 °FClear.No wind74%30.31 "Hg10 mi
8:55 PM28 °FClear.No wind86%30.32 "Hg10 mi
8:35 PM30 °FClear.No wind69%30.32 "Hg10 mi
8:15 PM30 °FClear.No wind64%30.32 "Hg10 mi
7:55 PM28 °FClear.No wind69%30.32 "Hg10 mi
7:15 PM30 °FClear.No wind59%30.32 "Hg10 mi
6:55 PM34 °FClear.No wind51%30.32 "Hg10 mi
6:35 PM32 °FClear.No wind64%30.31 "Hg10 mi
6:15 PM34 °FClear.No wind51%30.31 "Hg10 mi
5:55 PM36 °FClear.No wind44%30.30 "Hg10 mi
5:35 PM39 °FClear.No wind33%30.30 "Hg10 mi
5:15 PM39 °FSunny.3 mph33%30.29 "Hg10 mi
4:55 PM43 °FSunny.5 mph26%30.29 "Hg10 mi
4:15 PM43 °FSunny.6 mph24%30.28 "Hg10 mi
3:55 PM43 °FSunny.13 mph24%30.28 "Hg10 mi
3:35 PM43 °FSunny.8 mph24%30.28 "Hg10 mi
3:15 PM43 °FSunny.10 mph24%30.28 "Hg10 mi
2:55 PM43 °FSunny.14 mph22%30.28 "Hg10 mi
2:35 PM43 °FSunny.6 mph22%30.28 "Hg10 mi
2:15 PM41 °FSunny.12 mph24%30.29 "Hg10 mi
1:55 PM41 °FSunny.12 mph24%30.29 "Hg10 mi
1:35 PM39 °FSunny.9 mph24%30.29 "Hg10 mi
1:15 PM39 °FSunny.10 mph26%30.30 "Hg10 mi
12:55 PM39 °FSunny.13 mph26%30.31 "Hg10 mi
12:35 PM37 °FSunny.10 mph28%30.32 "Hg10 mi
12:15 PM37 °FSunny.9 mph30%30.34 "Hg10 mi
Weather by CustomWeather, © 2014

See weather overviewHow to use our weather pages